SL-14 R/B

Satellite information

Favourite Embed

Satellite Type and Status

ROCKET BODYIN ORBIT

Key statistics

Satellite SL-14 R/B at a glance.

Uptime

13357

Days in orbit

Revolutions

≈ 14.9

Per day

Orbit

LEO

Low Earth Orbit

Inclination

82.5

Latest

Satellite identification and parameters

Extended collection of information and parameters for SL-14 R/B.

Object identification

Identified? True

Debris? False

Object name: SL-14 R/B

International designator: 1988-093B

Object number (NORAD): 19574

Object ID (CCSDS): 19574

Country: COMMONWEALTH OF INDEPENDENT STATES (CIS)

Current information (Y/N): Y

RCS size: LARGE

Orbital parameters

Period: 96.951 minutes

Inclination: 82.5304 deg

SMA: 6990.808 km

Apoapsis: 626.83 km

Periapsis: 598.516 km

RAAN: 330.95 deg

Eccentricy: 0.0020251

Argument of periapsis: 340.9703 deg

Mean anomaly: 29.8499 deg

Mean motion: 14.85291455 rev/day

Mean motion (dot): 0.00000612 rev/day2

B* drag term: 0.000068228 1/REarth

Two-line elements (TLE)

Creation date: May 6, 2025, 3:54 a.m.

Reference frame: TEME

Reference center: EARTH

Epoch: May 5, 2025, 7:31 p.m. UTC

TLE line 0: 0 SL-14 R/B

TLE line 1: 1 19574U 88093B 25125.81348810 .00000612 00000-0 68228-4 0 9991

TLE line 2: 2 19574 82.5304 330.9500 0020251 340.9703 29.8499 14.85291455955336

Live tracking on map

Real-time ground track for satellite SL-14 R/B.

In-orbit conjunctions

A list of the most updated potential collisions computed for object SL-14 R/B.

Target Orbit TCA Probability of collision Miss distance Type
CZ-6A DEB LEO 2025-01-05 23:14:54 0.0001624026 109.0 (m) DEBRIS
CZ-6A DEB LEO 2024-10-17 21:42:15 0.0002068631 868.0 (m) DEBRIS
COSMOS 2251 DEB LEO 2024-06-25 06:36:06 0.0001271417 124.0 (m) DEBRIS

Associated space launch

Tselina-D satellites provided detailed observation of radio sources detected by the smaller Tselina-O satellites as part of the Tselina ELINT system.

SL-14 R/B was lifted into orbit during the mission ‘Tsiklon-3 | Tselina-D 66’, on board a Tsiklon-3 space rocket.

The launch took place on Oct. 11, 1988, 8:02 a.m. from 32/1.

For more information about the launch, click the button.

Launch to space Tsiklon-3 | Tselina-D 66
Tsiklon-3 | Tselina-D 66

Agency: N/A

Status: Launch Successful

Launch date: Oct. 11, 1988, 8:02 a.m. UTC

Rocket: Tsiklon-3

Launch pad: 32/1

Location: Plesetsk Cosmodrome, Russian Federation

...

Latest news about this satellite

There are no fresh news available about this satellite. Check back as we update our databases every day.


Newsletter sign-up

Weekly statistics, charts and insights to help you stay on top of the space industry.